Regional Weather Roundup
Issued by NWS

Home | Current Version | Previous Version | Text Only | Print | Product List | Glossary Off
Versions: 1 2 3 4 5 6 7 8 9 10 11 12 13 14 15 16 17 18 19 20 21 22 23 24 25 26 27 28 29 30 31 32 33 34 35 36 37 38 39 40 41 42 43 44 45 46 47 48 49 50

453
ASUS43 KOAX 132310
RWRNE

WEATHER ROUNDUP FOR NEBRASKA
NATIONAL WEATHER SERVICE OMAHA NE
500 PM CST SAT FEB 13 2016

NOTES: SATELLITE DATA IS BEING USED TO AUGMENT CLOUD COVER ABOVE
       12000 FEET.
       "FAIR" INDICATES FEW OR NO CLOUDS BELOW 12,000 FEET WITH NO
       SIGNIFICANT WEATHER AND/OR OBSTRUCTIONS TO VISIBILITY.

  * THESE STATIONS DO NOT REPORT WEATHER SUCH AS RAIN...SNOW OR FOG.

NEZ001>004-019>022-054>056-140000-
NEBRASKA PANHANDLE

CITY           SKY/WX    TMP DP  RH WIND       PRES   REMARKS
SCOTTSBLUFF    CLOUDY    57  23  26 W13       29.82F
ALLIANCE       CLOUDY    43  33  68 S15       29.80F
CHADRON        SUNNY     61  30  31 SW20G25   29.72F
KIMBALL        CLOUDY    58  24  27 W24       29.87F
SIDNEY         CLOUDY    44  37  76 S13       29.87F
$$

NEZ057>060-069>072-079>082-140000-
SOUTHWEST NEBRASKA

CITY           SKY/WX    TMP DP  RH WIND       PRES   REMARKS
NORTH PLATTE   CLOUDY    26  21  81 S13       30.00F WCI  15
IMPERIAL       CLOUDY    30  27  88 S13       29.96F WCI  20
LEXINGTON      CLOUDY    25  17  73 SE15      30.05F WCI  12
MCCOOK         CLOUDY    28  23  81 S13       30.04F HAZE    WCI  17
OGALLALA       CLOUDY    32  29  88 S12       29.94F WCI  23
$$

NEZ005>010-023>029-035>040-094-140000-
NORTH CENTRAL NEBRASKA

CITY           SKY/WX    TMP DP  RH WIND       PRES   REMARKS
VALENTINE      CLOUDY    28  23  81 S22G29    29.91F WCI  14
AINSWORTH      CLOUDY    26  21  82 S22       29.96F WCI  11
BROKEN BOW     CLOUDY    22  14  71 S20       30.05F WCI   7
O`NEILL        CLOUDY    22  12  66 S17G28    30.08F WCI   7
ORD            CLOUDY    22   9  57 S16G25    30.07F WCI   8
THEDFORD       CLOUDY    26  24  94 S15G23    29.95F FOG     WCI  14
$$

NEZ041-046>049-061>064-073>077-083>087-140000-
SOUTH CENTRAL NEBRASKA

CITY           SKY/WX    TMP DP  RH WIND       PRES   REMARKS
GRAND ISLAND   CLOUDY    20   8  60 SE16      30.18S WCI   6
AURORA         CLOUDY    21   8  56 S15       30.19S WCI   8
HASTINGS       CLOUDY    22   7  52 S10       30.15F WCI  11
HEBRON         CLOUDY    25   6  44 SE14      30.22F WCI  13
HOLDREGE       CLOUDY    25  13  62 SE13      30.09F WCI  13
KEARNEY *      CLOUDY    21   9  58 SE16      30.13F WCI   7
YORK           CLOUDY    21   9  58 SE12      30.21S WCI   9
$$

NEZ011>018-030>034-042>045-140000-
NORTHEAST NEBRASKA

CITY           SKY/WX    TMP DP  RH WIND       PRES   REMARKS
NORFOLK        CLOUDY    18   8  65 SE15      30.18F WCI   4
ALBION         CLOUDY    20   8  60 SE16      30.16F WCI   6
BLAIR          CLOUDY    18   6  58 SE15      30.29F WCI   4
COLUMBUS *     CLOUDY    19   1  45 SE9       30.23F WCI   9
FREMONT        CLOUDY    18   4  55 E15       30.28F WCI   4
TEKAMAH        CLOUDY    16   6  65 SE16      30.32F WCI   1
WAYNE          CLOUDY    15   8  73 SE16G22   30.25F WCI  -1
$$

NEZ050>053-065>068-078-088>093-140000-
SOUTHEAST NEBRASKA

CITY           SKY/WX    TMP DP  RH WIND       PRES   REMARKS
LINCOLN        CLOUDY    20   6  55 SE14      30.28F WCI   7
OMAHA EPPLEY   CLOUDY    19   3  49 SE14      30.34F WCI   6
BEATRICE       CLOUDY    22   4  46 SE13      30.24F WCI  10
FALLS CITY     CLOUDY    21   2  43 SE14      30.32F WCI   8
NEBRASKA CITY  CLOUDY    19   2  46 SE12      30.31F WCI   7
PLATTSMOUTH    CLOUDY    19   3  51 SE14      30.30F WCI   5
$$

NEZ044-045-051>053-067-140000-
OMAHA AREA

CITY           SKY/WX    TMP DP  RH WIND       PRES   REMARKS
OMAHA EPPLEY   CLOUDY    19   3  49 SE14      30.34F WCI   6
BLAIR          CLOUDY    18   6  58 SE15      30.29F WCI   4
FREMONT        CLOUDY    18   4  55 E15       30.28F WCI   4
MILLARD        CLOUDY    19   4  51 SE8       30.32S WCI   9
OFFUTT AFB     CLOUDY    19   3  49 E13       30.32F WCI   6
PLATTSMOUTH    CLOUDY    19   3  51 SE14      30.30F WCI   5
WAHOO          CLOUDY    19   8  62 SE13      30.28F WCI   6
$$




USA.gov is the U.S. government's official web portal to all federal, state and local government web resources and services.